星链-37023(STARLINK-37023)

导读

STARLINK-37023(NORAD编号:68076)是美国SpaceX公司星链(Starlink)低轨互联网星座中的一颗卫星,属于星链大规模组网部署的组成部分。星链项目旨在通过近地轨道卫星星座,为全球提供高速低延迟的互联网接入服务,覆盖偏远地区与传统网络难以覆盖的区域。该卫星运行在近地轨道,参与星座组网以实现天地一体化互联,助力SpaceX推进全球卫星互联网服务布局,目前已进入轨道投入部署,是星链扩张星座规模、提升服务覆盖能力的其中一颗在轨卫星。

Basic Information
目录编号:
68076
目录名称:
STARLINK-37023
国际标识:
2026-042H
轨道中心:
EARTH
卫星名称:
星链-37023
卫星全名:
星链-37023(STARLINK-37023)
卫星状态:
在轨 (已飞行185 天)
发射日期:
2026-03-04 UTC
国别 :
美国 (US)
星等 :
--
Orbit Information
数据来源 国际轨道数据 AOE轨道数据
星历时间 2026-09-04T20:14:20+0800
1天前
查看轨道信息
2026-09-01T09:00:00+0800
4天前
查看轨道信息
半长轴 6840.843km 6840.821km
偏心率 0.0000894 0.0001833
轨道倾角 53.158° 53.163°
近地点辐角 72.943° 83.056°
升交点赤经 64.559° 80.773°
平近点角 287.167° 188.189°
近地点 462.094km 461.43km
远地点 463.318km 463.938km
周期 93.848分钟 93.847分钟
每日圈数 15.343993 15.344067
Detailed Information
固有亮度:
5
最大亮度:
2.5
卫星平台:
Starlink V1.0
覆盖范围:
全球
运营商:
太空探索技术公司
运营商所在国:
美国
制造商(研发单位):
太空探索技术公司
制造商所在国:
美国
使用方式:
暂无
Satellite Introduction
Starlink 计划是 SpaceX 推出的全球卫星互联网项目,通过发射低轨道卫星,为全球尤其是偏远地区提供高速、低延迟的互联网服务。自 2019 年起,Starlink 已部署数千颗卫星,旨在缩小全球数字鸿沟,推动互联网普及。该项目还为军事、航空等行业提供通信支持,带来广泛经济效益。
2D Orbit Map
3D Orbit Map
Orbit Altitude Analysis Chart
Orbit Inclination Analysis Chart
Orbit Comprehensive Analysis Chart
View Comprehensive Chart
Conjunction Data List
Event ID Objects TCA Miss Dist (km) Collision Risk Probability Collision Risk Index (CRI) Action
CDM_260907-062305-396406-807621
2026-09-07T
06:23:06+0000
0.775 km
远距离
3.820469E-5 中风险 0.67
CDM_260907-123204-380306-807621
JY1SAT (43803)
2026-09-07T
12:32:40+0000
0.877 km
远距离
3.583545E-5 中风险 0.66
CDM_260903-210505-396406-807621
2026-09-03T
21:05:45+0000
0.937 km
远距离
2.037919E-5 中风险 0.61
CDM_260907-232605-921406-807621
2026-09-07T
23:26:49+0000
1.150 km
极远距离
5.031311E-6 低风险 0.49
CDM_260903-223905-396406-807621
2026-09-03T
22:39:32+0000
1.416 km
极远距离
4.957166E-6 低风险 0.49
CDM_260906-184805-912806-807623
2026-09-06T
18:48:53+0000
1.559 km
极远距离
3.385452E-6 低风险 0.46
CDM_260907-044905-396406-807621
2026-09-07T
04:49:19+0000
1.831 km
极远距离
2.282157E-6 低风险 0.42
CDM_260907-210605-921406-807621
2026-09-07T
21:06:07+0000
1.491 km
极远距离
2.172942E-6 低风险 0.42
CDM_260902-183405-386806-807621
2026-09-02T
18:34:58+0000
2.986 km
极远距离
1.056227E-6 低风险 0.35
CDM_260903-020805-209006-807622
2026-09-03T
02:08:25+0000
2.849 km
极远距离
9.233438E-7 极低风险 0.34